Regional Weather Roundup
Issued by NWS

Home | Current Version | Previous Version | Graphics & Text | Print | Product List | Glossary Off
Versions: 1 2 3 4 5 6 7 8 9 10 11 12 13 14 15 16 17 18 19 20 21 22 23 24 25 26 27 28 29 30 31 32 33 34 35 36 37 38 39 40 41 42 43 44 45 46 47 48 49 50

000
ASUS43 KIND 231809
RWRIN

WEATHER ROUNDUP FOR INDIANA
NATIONAL WEATHER SERVICE INDIANAPOLIS IN
200 PM EDT SAT AUG 23 2014

NOTE: "FAIR" INDICATES FEW OR NO CLOUDS BELOW 12,000 FEET WITH NO
SIGNIFICANT WEATHER AND/OR OBSTRUCTIONS TO VISIBILITY.

* - STATION DOES NOT REPORT WEATHER SUCH AS PRECIPITATION OR FOG.

+ - STATION NOT QUALITY CONTROLLED BY THE NATIONAL WEATHER SERVICE.
    USE DATA WITH CAUTION...ESPECIALLY DEWPOINT AND RELATIVE
    HUMIDITY OBSERVATIONS.

INZ001>003-010>013-019-020-231900-
NORTHWEST INDIANA

CITY           SKY/WX    TMP DP  RH WIND       PRES   REMARKS
GARY /AIRPORT/ CLOUDY    82  75  78 NE9       30.01S HAZE
KNOX *+        MOSUNNY   84  70  63 CALM      29.99F
LA PORTE +     CLOUDY    83  74  72 E8        30.01F
6HR MIN TEMP:  68; 6HR MAX TEMP:  83;

MICHIGAN CITY+ CLOUDY    82  72  69 E3        30.01F
MONTICELLO +   MOSUNNY   85  75  73 CALM      29.99F
RENSSELAER +   PTSUNNY   84  77  79 CALM      30.00S
VALPARAISO     PTSUNNY   85  73  67 CALM      30.01F
6HR MIN TEMP:  69; 6HR MAX TEMP:  86;


$$

LMZ046-743>745-231900-
SOUTHERN LAKE MICHIGAN

STATION/POSITION TIME  TEMP WIND        PRES
                       AIR  DIR/SP/G
                 (UTC) (F)  (DEG/KT/KT) (MB)
MICHIGAN CITY    1800   76   10/ 12/ 13   N/A

$$

INZ004-005-014>016-021>024-231900-
NORTH CENTRAL INDIANA

CITY           SKY/WX    TMP DP  RH WIND       PRES   REMARKS
ELKHART        CLOUDY    82  72  69 E5        30.04
GOSHEN         CLOUDY    82  72  71 CALM      30.03S
6HR MIN TEMP:  74; 6HR MAX TEMP:  84;

LOGANSPORT +   PTSUNNY   86  68  54 S3        30.02S
PERU/GRISSOM   MOSUNNY   86  78  78 E7        30.01S HX  98
6HR MIN TEMP:  70; 6HR MAX TEMP:  86; 6HR PCP: TRACE;

ROCHESTER +    PTSUNNY   88  73  62 E6        30.02F HX  96
SOUTH BEND     PTSUNNY   82  73  74 E7        30.04S
6HR MIN TEMP:  74; 6HR MAX TEMP:  82;

WARSAW +       PTSUNNY   81  73  78 E6        30.04S

$$

INZ006>009-017-018-025>027-231900-
NORTHEAST INDIANA

CITY           SKY/WX    TMP DP  RH WIND       PRES   REMARKS
ANGOLA *+      CLOUDY    82  70  65 SE5       30.05S
AUBURN +       MOSUNNY   82  68  61 SE3       30.05S
FORT WAYNE     CLOUDY    82  74  76 E6        30.04S
6HR MIN TEMP:  71; 6HR MAX TEMP:  82;

HUNTINGTON +   PTSUNNY   82  75  78 E5        30.02S
6HR MIN TEMP:  70; 6HR MAX TEMP:  82;


$$

INZ028-029-035-036-043>045-051>053-231900-
WEST CENTRAL INDIANA

CITY           SKY/WX    TMP DP  RH WIND       PRES   REMARKS
GREENCASTLE +  PTSUNNY   82  75  78 CALM      30.01S
LAFAYETTE      MOSUNNY   86  73  65 VRB5      29.98F
6HR MIN TEMP:  71; 6HR MAX TEMP:  86;

TERRE HAUTE    PTSUNNY   86  76  71 S8        29.98F HX  96
6HR MIN TEMP:  72; 6HR MAX TEMP:  86;


$$

INZ030>032-037>040-046>048-054>057-064-065-231900-
CENTRAL INDIANA

CITY           SKY/WX    TMP DP  RH WIND       PRES   REMARKS
ANDERSON       PTSUNNY   84  72  65 CALM      30.03S
CP ATTERBURY + CLOUDY    84  73  70 CALM      30.00F
COLUMBUS       CLOUDY    84  75  74 CALM      30.00S
FRANKFORT +    MOSUNNY   86  74  67 CALM      30.02F
INDIANAPOLIS   PTSUNNY   85  73  67 SE5       30.00S
6HR MIN TEMP:  73; 6HR MAX TEMP:  86;

-EAGLE CREEK   CLOUDY    85  72  65 CALM      29.99F
6HR MIN TEMP:  71; 6HR MAX TEMP:  86;

KOKOMO *+      MOSUNNY   84  73  70 E5        30.00F
MARION +       CLOUDY    82  71  69 CALM      30.03S
MT COMFORT *+  SUNNY     86  68  54 SE3       30.02S
SHELBYVILLE    PTSUNNY   87  74  64 VRB3      30.00F HX  95
6HR MIN TEMP:  70; 6HR MAX TEMP:  87;

ZIONSVILLE +   MOSUNNY   86  71  60 E5        30.02S
6HR MIN TEMP:  70; 6HR MAX TEMP:  87;


$$

INZ033-034-041-042-049-050-058-059-231900-
EAST CENTRAL INDIANA

CITY           SKY/WX    TMP DP  RH WIND       PRES   REMARKS
MUNCIE         CLOUDY    84  72  67 VRB3      30.02S
6HR MIN TEMP:  69; 6HR MAX TEMP:  86;


$$

INZ060-061-067>069-081>083-085>088-231900-
SOUTHWEST INDIANA

CITY           SKY/WX    TMP DP  RH WIND       PRES   REMARKS
EVANSVILLE     MOSUNNY   92  76  59 CALM      29.97S HX 104
6HR MIN TEMP:  76; 6HR MAX TEMP:  92;

WASHINGTON +   MOSUNNY   86  79  77 SE3       29.97F HX 100
6HR MIN TEMP:  73; 6HR MAX TEMP:  87;


$$

INZ062-063-066-070>080-084-089>092-231900-
SOUTH CENTRAL AND SOUTHEAST INDIANA

CITY           SKY/WX    TMP DP  RH WIND       PRES   REMARKS
BLOOMINGTON    MOSUNNY   85  74  69 S6        30.00F
6HR MIN TEMP:  74; 6HR MAX TEMP:  87;

SEYMOUR +      MOSUNNY   84  63  48 S5        29.99

$$




USA.gov is the U.S. government's official web portal to all federal, state and local government web resources and services.